Wind_Speed
32 33 34 34 34 34 35 34 34 35 35 35 36 36 36 36 36 37 37 37 37 38 39 40 40 41 42 43 43 43 43 43 42 41 42 43 43 43 43 43 44 45 46
33 33 33 34 34 34 35 35 35 36 36 36 36 36 36 36 37 38 38 38 39 39 39 40 41 42 43 43 43 43 43 44 44 43 43 43 44 44 44 44 45 46 46
34 34 34 34 35 35 36 36 36 37 37 37 37 37 37 37 37 38 39 39 39 39 40 40 41 42 43 44 44 43 44 44 44 45 44 44 44 45 45 46 46 47 47
34 35 35 35 35 36 36 37 38 38 38 38 39 39 38 38 39 39 40 40 40 41 41 42 43 44 44 44 44 44 45 45 45 45 45 45 45 45 46 47 47 47 47
35 36 36 36 36 36 37 37 38 39 39 39 39 40 40 40 40 40 41 41 42 43 43 43 43 44 44 43 44 44 45 45 45 46 46 46 46 47 47 48 48 47 47
37 37 37 37 37 37 37 38 38 39 39 39 40 40 41 41 41 41 42 43 44 44 44 44 44 45 45 44 44 44 44 45 46 47 47 47 47 47 47 47 47 47 47
39 39 39 38 38 38 38 39 39 40 40 41 41 41 41 41 42 42 43 44 45 46 46 46 45 44 45 45 45 45 45 46 47 47 47 47 47 47 47 46 46 46 46
40 40 40 40 41 41 40 41 41 41 41 42 42 42 42 43 44 44 45 45 46 46 46 46 45 45 44 45 45 44 45 46 47 47 47 46 46 45 45 45 45 45 45
42 42 42 42 43 43 43 42 43 43 43 43 43 43 44 44 45 46 46 46 46 45 46 45 45 45 45 45 45 45 45 45 46 47 46 46 47 46 46 46 46 46 45
44 44 44 44 44 44 44 45 45 45 45 45 45 45 46 46 47 47 47 47 47 47 47 46 45 45 45 45 45 46 46 46 47 46 46 46 46 46 46 46 46 46 46
45 45 45 45 45 46 46 46 46 46 46 47 47 47 48 49 50 50 50 49 48 48 47 47 47 46 46 46 46 46 46 46 46 46 46 46 46 46 46 46 47 46 45
46 46 46 46 46 47 47 47 47 47 48 48 49 49 50 50 51 50 50 50 49 48 47 47 47 47 46 47 47 46 46 47 47 47 47 47 47 46 46 47 46 46 46
47 47 47 47 47 47 48 48 48 48 49 50 50 50 50 51 51 51 50 50 50 49 48 48 47 47 47 47 47 47 47 47 47 48 48 48 48 48 49 48 48 47 47
48 48 47 47 48 48 48 48 49 49 50 50 50 50 51 51 51 51 51 50 50 50 49 49 48 48 47 48 48 48 48 49 49 49 49 49 49 49 50 50 49 48 48
48 49 48 49 49 49 49 49 50 50 50 50 50 51 51 50 51 51 51 51 51 51 51 50 49 48 49 49 49 49 49 50 50 50 50 50 49 49 49 50 50 50 49
50 50 50 50 50 50 50 50 50 51 51 51 51 51 51 51 51 52 52 51 51 51 50 50 50 49 49 50 50 50 50 50 50 50 50 50 50 51 51 51 51 51 50
51 51 51 50 50 50 50 51 51 51 52 52 52 52 51 51 52 52 52 51 51 51 51 51 50 50 50 51 51 51 50 50 50 51 51 51 51 51 51 51 51 51 51
51 51 51 51 51 51 51 51 51 51 51 51 52 52 52 52 52 52 52 52 51 51 50 51 51 51 51 51 51 51 51 51 51 51 51 51 51 51 51 50 50 50 50
52 52 52 51 51 51 51 51 51 51 51 51 52 52 52 52 53 52 51 51 51 51 51 51 51 51 50 51 52 52 52 52 51 51 51 51 51 51 51 50 50 49 49
52 51 51 51 50 50 50 50 50 50 50 51 51 52 52 52 52 52 51 51 51 51 51 51 51 52 52 52 52 53 52 52 52 51 50 50 50 50 50 50 50 50 49
51 51 50 49 49 49 49 50 50 51 51 51 51 51 51 51 51 51 51 51 52 52 52 52 52 52 52 52 52 52 51 51 50 50 50 50 50 50 50 50 49 49 48
49 49 49 49 49 49 49 50 50 51 51 51 51 51 51 50 50 51 51 51 51 52 52 52 52 52 52 51 52 52 51 50 50 50 50 50 50 50 50 49 49 49 49
47 47 48 49 49 49 49 49 49 49 49 49 49 48 48 48 48 48 49 50 50 50 51 51 51 50 50 50 50 50 50 50 50 50 50 50 50 49 49 48 48 48 48
45 46 46 47 47 48 48 48 48 48 47 47 47 47 46 46 45 46 46 47 47 48 48 48 48 48 49 49 49 49 49 49 49 49 49 50 49 49 48 48 47 47 47
43 44 44 45 45 46 46 47 47 46 46 46 46 46 46 45 45 45 46 45 45 45 46 46 46 46 46 47 47 47 47 48 48 48 47 47 47 47 47 46 46 47 47
43 43 43 44 45 45 45 45 46 46 46 46 47 46 46 45 44 44 44 43 43 44 44 44 44 45 45 45 45 45 45 46 46 46 45 44 44 44 44 43 43 43 44
Wind_Direction
271 271 271 271 270 269 269 270 271 271 272 273 273 275 276 276 277 278 278 278 278 279 279 280 281 282 282 283 283 285 286 288 289 290 291 291 289 290 290 291 291 291 290
272 272 272 270 270 269 269 269 270 270 272 273 274 274 276 277 278 278 278 279 279 280 281 282 283 283 283 284 284 285 287 288 289 290 291 291 290 290 290 291 291 291 290
272 272 272 271 270 269 269 269 270 271 272 273 274 274 275 276 278 278 278 279 279 281 282 283 284 285 285 285 285 287 287 288 289 289 290 290 290 290 290 291 291 291 290
272 273 273 272 271 270 269 269 270 271 272 272 272 273 274 275 276 278 279 279 279 281 283 283 284 285 287 286 287 287 287 287 288 289 290 290 291 291 291 291 290 290 290
273 273 273 273 273 272 271 270 271 272 272 273 273 274 275 276 277 277 278 280 280 282 284 284 284 285 287 288 288 288 287 287 288 289 290 291 291 291 292 291 290 289 288
272 273 273 274 273 272 272 272 272 272 273 274 274 275 276 277 278 279 279 280 281 282 283 284 284 284 286 287 288 287 287 287 287 289 290 291 292 291 292 292 291 290 289
272 272 272 272 272 272 272 273 273 273 274 275 276 276 276 278 278 279 280 281 282 282 283 284 284 285 286 286 286 286 287 287 288 289 290 291 292 291 292 292 291 290 290
272 272 272 272 272 272 273 273 273 273 274 274 275 276 277 277 278 279 279 280 281 282 283 283 284 285 286 286 286 286 287 287 288 289 290 291 292 292 291 292 292 292 291
272 272 272 272 273 273 274 273 273 273 274 275 276 276 277 278 279 280 281 281 282 282 283 283 284 285 286 286 287 287 287 288 288 289 290 290 291 291 291 292 292 293 292
273 273 273 273 273 273 274 274 274 274 274 275 276 277 278 279 279 281 281 282 282 282 282 282 283 284 285 285 286 287 287 287 287 288 288 289 289 290 291 292 292 293 293
272 273 273 274 274 274 274 274 274 274 275 276 276 277 278 278 279 280 281 282 281 281 281 281 281 282 284 285 286 287 287 287 287 287 287 287 288 290 291 292 292 293 293
272 272 273 273 274 274 274 274 274 275 276 276 277 277 278 278 278 279 280 281 281 280 280 280 280 281 282 283 284 285 286 287 287 287 288 288 288 289 291 292 292 293 292
272 272 272 273 273 274 274 275 275 276 277 278 278 277 277 278 277 278 280 280 279 279 279 279 279 280 282 282 283 285 286 287 287 288 288 288 288 289 290 291 292 292 292
271 271 271 272 273 274 274 275 275 276 277 278 278 278 278 277 278 278 279 280 280 280 279 279 279 279 280 281 283 285 286 287 287 288 288 288 289 290 291 291 291 291 291
270 270 271 272 273 273 274 274 275 276 277 277 277 277 277 277 277 278 278 279 279 279 279 279 279 279 280 282 283 284 286 287 288 288 289 289 290 290 290 290 290 291 291
270 270 272 273 273 273 274 274 275 276 276 277 277 277 278 277 278 278 279 279 280 280 279 279 279 279 280 281 283 284 285 286 287 287 289 289 290 290 290 290 290 290 290
271 272 273 273 273 273 273 273 274 274 275 276 277 277 278 278 279 279 279 279 279 280 280 280 279 279 280 281 283 283 284 285 286 287 288 289 290 291 291 291 291 290 290
272 272 273 273 273 273 273 273 273 274 275 276 277 277 277 278 278 278 279 279 279 279 280 280 279 279 280 281 282 283 283 284 285 286 288 289 290 291 292 291 291 291 290
272 272 273 273 273 273 273 273 273 275 275 275 276 277 277 277 277 278 278 278 278 279 280 280 279 279 279 280 281 282 283 284 284 286 287 288 290 290 291 291 291 291 290
272 272 272 272 272 273 273 273 274 275 276 276 276 277 278 277 277 277 277 278 278 278 279 279 279 279 279 280 281 282 283 284 284 285 286 288 289 290 290 290 290 290 291
271 271 270 270 271 273 273 274 275 276 277 277 277 278 278 278 278 278 278 278 278 278 278 279 279 279 280 280 281 282 283 283 284 285 286 287 288 289 289 290 290 291 291
270 270 269 270 272 273 274 274 275 276 277 277 278 278 279 279 278 278 278 278 279 279 279 279 279 279 279 280 281 281 282 283 283 284 285 287 287 288 288 289 289 290 290
271 271 271 271 271 273 274 274 275 276 277 277 278 279 279 280 280 279 279 279 279 279 279 280 279 279 279 280 282 282 282 282 283 284 285 286 286 286 287 288 289 290 290
271 272 272 272 273 274 274 275 276 276 276 277 278 279 280 280 280 280 280 280 280 280 280 280 279 279 280 281 282 282 282 283 284 284 285 286 286 286 287 288 288 289 290
272 273 274 274 275 276 276 277 277 277 277 277 278 279 279 279 280 280 280 280 280 279 279 280 279 280 280 281 281 282 283 284 285 285 286 286 287 287 288 288 288 288 289
274 275 275 276 277 277 278 278 278 277 277 277 278 279 279 279 279 280 280 280 280 279 280 280 280 281 281 282 282 283 284 286 286 286 286 287 287 288 288 289 289 290 290
Height
5660 5659 5659 5659 5659 5660 5660 5660 5661 5661 5660 5660 5659 5658 5657 5656 5655 5653 5652 5650 5648 5647 5646 5645 5643 5642 5640 5639 5636 5634 5632 5629 5627 5626 5623 5620 5616 5613 5610 5607 5605 5601 5598
5651 5650 5650 5649 5650 5650 5651 5651 5651 5651 5651 5650 5650 5649 5648 5647 5645 5643 5642 5640 5639 5637 5636 5634 5633 5631 5629 5627 5625 5623 5620 5618 5615 5614 5611 5608 5605 5602 5599 5596 5593 5590 5586
5642 5642 5641 5641 5641 5641 5641 5641 5642 5641 5641 5641 5640 5639 5638 5637 5635 5634 5632 5631 5629 5627 5626 5624 5622 5620 5618 5616 5614 5611 5609 5606 5603 5601 5599 5596 5593 5590 5586 5583 5580 5577 5574
5633 5633 5632 5632 5632 5631 5631 5632 5632 5631 5631 5631 5630 5629 5628 5627 5625 5624 5622 5620 5619 5617 5615 5613 5611 5609 5607 5604 5602 5599 5597 5594 5592 5589 5587 5584 5581 5577 5573 5570 5567 5564 5560
5624 5624 5623 5623 5622 5622 5622 5621 5621 5621 5621 5620 5619 5618 5617 5616 5614 5613 5611 5610 5608 5606 5605 5603 5600 5597 5595 5592 5590 5588 5585 5583 5580 5577 5574 5571 5568 5564 5560 5556 5552 5549 5546
5614 5614 5613 5613 5612 5612 5611 5611 5611 5611 5610 5609 5608 5607 5606 5605 5603 5602 5600 5599 5597 5595 5593 5591 5589 5586 5583 5581 5578 5576 5573 5570 5568 5565 5562 5558 5554 5550 5546 5542 5538 5536 5533
5603 5603 5603 5602 5602 5602 5601 5600 5600 5600 5599 5598 5597 5596 5595 5593 5592 5590 5588 5587 5585 5583 5581 5579 5576 5574 5571 5569 5566 5564 5561 5558 5555 5552 5549 5545 5541 5537 5533 5529 5525 5522 5519
5592 5592 5591 5591 5591 5590 5590 5589 5589 5588 5587 5587 5585 5584 5583 5582 5580 5578 5576 5574 5572 5570 5568 5566 5564 5561 5559 5556 5554 5552 5549 5546 5542 5539 5536 5532 5528 5524 5520 5516 5512 5509 5506
5580 5580 5579 5579 5579 5578 5578 5577 5577 5576 5575 5574 5573 5572 5571 5569 5567 5565 5563 5561 5560 5558 5555 5553 5551 5548 5546 5543 5541 5539 5537 5533 5529 5526 5523 5519 5515 5511 5507 5503 5500 5496 5493
5568 5567 5566 5566 5566 5565 5565 5564 5564 5563 5562 5561 5560 5559 5557 5556 5554 5552 5550 5548 5547 5545 5542 5540 5537 5535 5532 5529 5527 5525 5523 5520 5517 5514 5510 5506 5503 5499 5494 5490 5487 5483 5479
5554 5553 5553 5552 5552 5551 5551 5550 5550 5549 5549 5548 5547 5545 5544 5542 5540 5538 5536 5534 5532 5530 5528 5526 5524 5521 5519 5517 5514 5512 5509 5506 5503 5500 5497 5494 5490 5486 5482 5477 5473 5469 5465
5540 5539 5539 5538 5538 5537 5537 5536 5535 5535 5534 5533 5532 5531 5529 5527 5525 5523 5521 5519 5517 5516 5514 5512 5510 5508 5505 5503 5500 5498 5495 5492 5489 5487 5483 5480 5476 5473 5469 5464 5460 5456 5452
5525 5525 5525 5524 5523 5523 5522 5521 5521 5520 5519 5518 5517 5516 5514 5512 5510 5508 5506 5504 5502 5501 5500 5498 5496 5493 5491 5489 5486 5484 5481 5478 5475 5472 5469 5466 5462 5458 5454 5450 5446 5442 5438
5511 5510 5510 5509 5509 5508 5507 5507 5506 5505 5504 5503 5502 5500 5498 5496 5494 5492 5491 5489 5487 5485 5484 5483 5481 5479 5476 5474 5472 5469 5466 5464 5461 5458 5455 5451 5447 5443 5439 5435 5431 5427 5424
5496 5495 5495 5494 5494 5493 5493 5492 5491 5489 5488 5487 5486 5484 5483 5482 5479 5477 5475 5474 5472 5470 5468 5467 5465 5464 5462 5459 5457 5454 5451 5448 5445 5442 5439 5436 5432 5428 5424 5420 5416 5412 5409
5480 5480 5479 5479 5478 5478 5477 5476 5474 5473 5472 5470 5469 5468 5467 5465 5463 5461 5459 5457 5455 5454 5452 5451 5449 5448 5446 5444 5441 5439 5435 5432 5429 5426 5423 5420 5416 5413 5409 5405 5400 5397 5394
5464 5464 5464 5463 5462 5462 5461 5460 5459 5457 5455 5454 5452 5451 5450 5449 5447 5445 5443 5441 5439 5438 5436 5434 5433 5431 5430 5428 5425 5423 5420 5417 5414 5411 5408 5404 5401 5397 5393 5389 5385 5381 5378
5448 5447 5447 5446 5446 5445 5444 5443 5442 5441 5440 5438 5436 5434 5433 5432 5430 5428 5426 5425 5424 5421 5419 5418 5416 5415 5413 5411 5409 5406 5404 5401 5398 5395 5391 5388 5384 5380 5377 5373 5369 5366 5362
5431 5431 5430 5430 5429 5428 5427 5426 5425 5424 5423 5421 5419 5417 5416 5414 5413 5411 5409 5408 5407 5405 5403 5401 5399 5398 5396 5394 5392 5390 5387 5384 5381 5378 5375 5372 5368 5364 5361 5357 5354 5350 5347
5414 5414 5413 5413 5412 5411 5411 5410 5409 5408 5406 5405 5403 5401 5399 5398 5396 5394 5392 5391 5389 5388 5386 5384 5382 5380 5379 5377 5375 5373 5370 5368 5365 5362 5359 5356 5352 5349 5345 5342 5338 5335 5331
5397 5396 5396 5396 5396 5395 5394 5394 5392 5391 5390 5388 5386 5384 5382 5380 5379 5377 5376 5374 5372 5370 5369 5367 5366 5364 5362 5360 5358 5356 5353 5351 5348 5345 5343 5340 5337 5333 5330 5326 5323 5319 5316
5380 5380 5380 5380 5379 5379 5378 5377 5376 5375 5373 5372 5370 5368 5365 5364 5362 5360 5359 5357 5355 5353 5351 5350 5348 5346 5344 5343 5341 5339 5337 5334 5332 5329 5327 5324 5321 5317 5314 5311 5308 5304 5301
5365 5364 5364 5364 5363 5363 5362 5361 5360 5358 5357 5355 5354 5352 5350 5348 5346 5344 5342 5340 5338 5336 5334 5332 5331 5329 5327 5325 5323 5321 5320 5317 5315 5313 5310 5308 5305 5302 5299 5295 5292 5289 5285
5350 5349 5349 5348 5348 5347 5346 5345 5344 5342 5341 5340 5338 5336 5335 5333 5331 5328 5326 5324 5322 5320 5318 5316 5314 5313 5311 5309 5307 5305 5303 5301 5298 5296 5294 5291 5289 5286 5283 5280 5276 5273 5270
5336 5335 5335 5334 5333 5332 5331 5329 5328 5327 5326 5324 5323 5321 5319 5317 5315 5313 5311 5309 5307 5305 5303 5301 5299 5297 5296 5293 5291 5289 5287 5285 5282 5280 5277 5275 5272 5270 5267 5264 5261 5258 5254
5322 5321 5320 5319 5318 5317 5316 5314 5313 5312 5311 5309 5308 5306 5304 5302 5300 5298 5296 5294 5292 5290 5288 5286 5285 5283 5281 5279 5277 5275 5272 5270 5267 5265 5262 5260 5258 5255 5252 5249 5246 5243 5240